| time (UTC) | temp C | wind direction | speed KPH | gust KPH | rain 1hr cm | rain 24hr cm | rain mn cm | humidity % | barometer mb |
| 20260831212332 | 37 | 200 | 4.8 | 17.7 | 0.00 | 0.00 | 0.00 | 40 | 1011.0 |
| 20260831211304 | 36 | 91 | 6.4 | 17.7 | 0.00 | 0.00 | 0.00 | 38 | 1011.3 |
| 20260831210327 | 37 | 100 | 6.4 | 16.1 | 0.00 | 0.00 | 0.00 | 39 | 1011.4 |
| 20260831205257 | 37 | 203 | 3.2 | 19.3 | 0.00 | 0.00 | 0.00 | 40 | 1011.6 |
| 20260831204240 | 36 | 169 | 4.8 | 19.3 | 0.00 | 0.00 | 0.00 | 39 | 1011.8 |
| 20260831203232 | 36 | 78 | 6.4 | 17.7 | 0.00 | 0.00 | 0.00 | 39 | 1011.9 |
| 20260831202157 | 36 | 216 | 8.0 | 22.5 | 0.00 | 0.00 | 0.00 | 41 | 1012.2 |
| 20260831201143 | 36 | 159 | 6.4 | 22.5 | 0.00 | 0.00 | 0.00 | 41 | 1012.3 |
| 20260831200125 | 36 | 184 | 6.4 | 19.3 | 0.00 | 0.00 | 0.00 | 40 | 1012.5 |
| 20260831192916 | 36 | 123 | 6.4 | 20.9 | 0.00 | 0.00 | 0.00 | 44 | 1012.9 |
| 20260831191918 | 35 | 175 | 6.4 | 16.1 | 0.00 | 0.00 | 0.00 | 46 | 1013.0 |
| 20260831190900 | 35 | 147 | 8.0 | 24.1 | 0.00 | 0.00 | 0.00 | 47 | 1013.1 |
| 20260831185839 | 35 | 182 | 8.0 | 17.7 | 0.00 | 0.00 | 0.00 | 48 | 1013.3 |
| 20260831184805 | 34 | 171 | 4.8 | 17.7 | 0.00 | 0.00 | 0.00 | 50 | 1013.4 |
| 20260831182652 | 34 | 207 | 6.4 | 19.3 | 0.00 | 0.00 | 0.00 | 51 | 1013.6 |
| 20260831181620 | 34 | 97 | 4.8 | 14.5 | 0.00 | 0.00 | 0.00 | 50 | 1013.6 |
| 20260831180617 | 34 | 151 | 4.8 | 16.1 | 0.00 | 0.00 | 0.00 | 51 | 1013.7 |
| 20260831175548 | 34 | 134 | 3.2 | 17.7 | 0.00 | 0.00 | 0.00 | 52 | 1013.9 |
| 20260831174610 | 33 | 235 | 6.4 | 17.7 | 0.00 | 0.00 | 0.00 | 52 | 1014.0 |
| 20260831173541 | 33 | 216 | 4.8 | 14.5 | 0.00 | 0.00 | 0.00 | 51 | 1014.1 |
| 20260831172549 | 33 | 238 | 4.8 | 16.1 | 0.00 | 0.00 | 0.00 | 53 | 1014.2 |
| 20260831170424 | 33 | 180 | 4.8 | 16.1 | 0.00 | 0.00 | 0.00 | 58 | 1014.4 |
| 20260831165407 | 32 | 183 | 6.4 | 20.9 | 0.00 | 0.00 | 0.00 | 57 | 1014.4 |
| 20260831164425 | 32 | 179 | 6.4 | 20.9 | 0.00 | 0.00 | 0.00 | 58 | 1014.4 |
| 20260831163356 | 32 | 202 | 4.8 | 14.5 | 0.00 | 0.00 | 0.00 | 57 | 1014.4 |
| 20260831162356 | 32 | 182 | 4.8 | 14.5 | 0.00 | 0.00 | 0.00 | 58 | 1014.4 |
| 20260831161347 | 31 | 215 | 3.2 | 16.1 | 0.00 | 0.00 | 0.00 | 64 | 1014.4 |
| 20260831160326 | 31 | 192 | 6.4 | 19.3 | 0.00 | 0.00 | 0.00 | 65 | 1014.3 |
| 20260831155333 | 31 | 186 | 4.8 | 19.3 | 0.00 | 0.00 | 0.00 | 63 | 1014.4 |
| 20260831154338 | 31 | 218 | 4.8 | 14.5 | 0.00 | 0.00 | 0.00 | 65 | 1014.4 |
| 20260831153343 | 30 | 186 | 4.8 | 16.1 | 0.00 | 0.00 | 0.00 | 68 | 1014.2 |
| 20260831152335 | 30 | 196 | 6.4 | 17.7 | 0.00 | 0.00 | 0.00 | 69 | 1014.0 |
| 20260831151400 | 30 | 153 | 4.8 | 17.7 | 0.00 | 0.00 | 0.00 | 71 | 1014.0 |
| 20260831150336 | 30 | 164 | 3.2 | 17.7 | 0.00 | 0.00 | 0.00 | 73 | 1014.0 |
| 20260831145352 | 29 | 223 | 6.4 | 17.7 | 0.00 | 0.00 | 0.00 | 74 | 1014.0 |
| 20260831144416 | 28 | 186 | 4.8 | 17.7 | 0.00 | 0.00 | 0.00 | 77 | 1013.9 |
| 20260831143412 | 28 | 151 | 4.8 | 17.7 | 0.00 | 0.00 | 0.00 | 79 | 1013.8 |
| 20260831142345 | 28 | 192 | 4.8 | 14.5 | 0.00 | 0.00 | 0.00 | 79 | 1013.8 |
| 20260831141330 | 27 | 182 | 3.2 | 11.3 | 0.00 | 0.00 | 0.00 | 82 | 1013.8 |
| 20260831140300 | 27 | 232 | 3.2 | 11.3 | 0.00 | 0.00 | 0.00 | 83 | 1013.5 |
| 20260831135226 | 27 | 205 | 3.2 | 11.3 | 0.00 | 0.00 | 0.00 | 85 | 1013.5 |
| 20260831134241 | 26 | 192 | 3.2 | 11.3 | 0.00 | 0.00 | 0.00 | 87 | 1013.5 |
| 20260831133303 | 26 | 198 | 1.6 | 9.7 | 0.00 | 0.00 | 0.00 | 89 | 1013.4 |
| 20260831131054 | 25 | 184 | 1.6 | 8.0 | 0.00 | 0.00 | 0.00 | 92 | 1013.4 |
| 20260831130054 | 25 | 176 | 1.6 | 6.4 | 0.00 | 0.00 | 0.00 | 92 | 1013.1 |
| 20260831125026 | 25 | 194 | 1.6 | 8.0 | 0.00 | 0.00 | 0.00 | 92 | 1013.1 |
| 20260831124029 | 25 | 196 | 3.2 | 8.0 | 0.00 | 0.00 | 0.00 | 92 | 1013.0 |
| 20260831123026 | 25 | 196 | 3.2 | 6.4 | 0.00 | 0.00 | 0.00 | 91 | 1013.0 |
| 20260831120850 | 25 | 188 | 1.6 | 6.4 | 0.00 | 0.00 | 0.00 | 91 | 1013.0 |
| 20260831115856 | 25 | 210 | 1.6 | 9.7 | 0.00 | 0.00 | 0.00 | 90 | 1012.9 |
| 20260831114910 | 25 | 200 | 1.6 | 11.3 | 0.00 | 0.00 | 0.00 | 90 | 1012.8 |
| 20260831113844 | 25 | 174 | 3.2 | 11.3 | 0.00 | 0.00 | 0.00 | 90 | 1012.9 |
| 20260831112821 | 25 | 212 | 3.2 | 9.7 | 0.00 | 0.00 | 0.00 | 90 | 1012.8 |
| 20260831111814 | 25 | 198 | 3.2 | 9.7 | 0.00 | 0.00 | 0.00 | 89 | 1012.8 |
| 20260831105634 | 25 | 213 | 3.2 | 16.1 | 0.00 | 0.00 | 0.00 | 90 | 1012.6 |
| 20260831104656 | 25 | 178 | 3.2 | 16.1 | 0.00 | 0.00 | 0.00 | 90 | 1012.7 |
| 20260831103701 | 25 | 176 | 3.2 | 9.7 | 0.00 | 0.00 | 0.00 | 90 | 1012.7 |
| 20260831102707 | 25 | 190 | 4.8 | 12.9 | 0.00 | 0.00 | 0.00 | 90 | 1012.6 |
| 20260831101701 | 25 | 208 | 4.8 | 12.9 | 0.00 | 0.00 | 0.00 | 89 | 1012.6 |
| 20260831100644 | 25 | 199 | 4.8 | 12.9 | 0.00 | 0.00 | 0.00 | 89 | 1012.6 |
| 20260831095700 | 25 | 200 | 3.2 | 12.9 | 0.00 | 0.00 | 0.00 | 89 | 1012.7 |
| 20260831094633 | 25 | 215 | 3.2 | 9.7 | 0.00 | 0.00 | 0.00 | 89 | 1012.7 |
| 20260831093604 | 25 | 157 | 4.8 | 12.9 | 0.00 | 0.00 | 0.00 | 88 | 1012.6 |
| 20260831092617 | 25 | 169 | 3.2 | 19.3 | 0.00 | 0.00 | 0.00 | 88 | 1012.6 |
| 20260831091616 | 25 | 196 | 4.8 | 19.3 | 0.00 | 0.00 | 0.00 | 88 | 1012.5 |
| 20260831080834 | 25 | 169 | 4.8 | 12.9 | 0.00 | 0.00 | 0.00 | 84 | 1012.7 |
| 20260831075826 | 25 | 161 | 4.8 | 12.9 | 0.00 | 0.00 | 0.00 | 83 | 1012.7 |
| 20260831074823 | 25 | 172 | 4.8 | 12.9 | 0.00 | 0.00 | 0.00 | 83 | 1012.7 |
| 20260831073827 | 26 | 219 | 4.8 | 14.5 | 0.00 | 0.00 | 0.00 | 82 | 1012.7 |
| 20260831071740 | 26 | 196 | 6.4 | 19.3 | 0.00 | 0.00 | 0.00 | 80 | 1012.8 |
| 20260831070717 | 26 | 186 | 6.4 | 16.1 | 0.00 | 0.00 | 0.00 | 80 | 1012.7 |
| 20260831065733 | 26 | 192 | 6.4 | 16.1 | 0.00 | 0.00 | 0.00 | 79 | 1012.7 |
| 20260831064720 | 26 | 224 | 6.4 | 14.5 | 0.00 | 0.00 | 0.00 | 78 | 1012.8 |
| 20260831063700 | 26 | 192 | 6.4 | 17.7 | 0.00 | 0.00 | 0.00 | 77 | 1012.9 |
| 20260831062626 | 27 | 166 | 6.4 | 17.7 | 0.00 | 0.00 | 0.00 | 76 | 1012.9 |
| 20260831061610 | 27 | 193 | 8.0 | 17.7 | 0.00 | 0.00 | 0.00 | 75 | 1012.8 |
| 20260831060613 | 27 | 198 | 8.0 | 17.7 | 0.00 | 0.00 | 0.00 | 74 | 1012.7 |
| 20260831055545 | 27 | 184 | 8.0 | 16.1 | 0.00 | 0.00 | 0.00 | 73 | 1012.7 |
| 20260831054601 | 27 | 207 | 8.0 | 17.7 | 0.00 | 0.00 | 0.00 | 73 | 1012.7 |
| 20260831053542 | 27 | 174 | 8.0 | 17.7 | 0.00 | 0.00 | 0.00 | 73 | 1012.5 |
| 20260831052531 | 27 | 162 | 8.0 | 17.7 | 0.00 | 0.00 | 0.00 | 73 | 1012.5 |
| 20260831051556 | 28 | 186 | 8.0 | 19.3 | 0.00 | 0.00 | 0.00 | 73 | 1012.4 |
| 20260831045330 | 28 | 192 | 6.4 | 24.1 | 0.00 | 0.00 | 0.00 | 71 | 1012.4 |
| 20260831044303 | 28 | 167 | 9.7 | 24.1 | 0.00 | 0.00 | 0.00 | 70 | 1012.4 |
| 20260831042131 | 29 | 171 | 8.0 | 17.7 | 0.00 | 0.00 | 0.00 | 68 | 1012.4 |
| 20260831034900 | 30 | 177 | 8.0 | 22.5 | 0.00 | 0.00 | 0.00 | 65 | 1012.2 |
| 20260831033839 | 30 | 164 | 6.4 | 16.1 | 0.00 | 0.00 | 0.00 | 63 | 1012.1 |
| 20260831032811 | 30 | 175 | 6.4 | 16.1 | 0.00 | 0.00 | 0.00 | 62 | 1011.9 |
| 20260831030714 | 30 | 194 | 4.8 | 17.7 | 0.00 | 0.00 | 0.00 | 61 | 1011.8 |
| 20260831025705 | 30 | 159 | 4.8 | 17.7 | 0.00 | 0.00 | 0.00 | 60 | 1011.5 |
| 20260831024726 | 31 | 173 | 6.4 | 14.5 | 0.00 | 0.00 | 0.00 | 59 | 1011.4 |
| 20260831023655 | 31 | 136 | 6.4 | 19.3 | 0.00 | 0.00 | 0.00 | 58 | 1011.2 |
| 20260831021546 | 31 | 157 | 4.8 | 12.9 | 0.00 | 0.00 | 0.00 | 55 | 1010.9 |
| 20260831015424 | 32 | 197 | 6.4 | 14.5 | 0.00 | 0.00 | 0.00 | 54 | 1010.5 |
| 20260831014435 | 32 | 176 | 4.8 | 16.1 | 0.00 | 0.00 | 0.00 | 53 | 1010.4 |
| 20260831013402 | 32 | 155 | 3.2 | 16.1 | 0.00 | 0.00 | 0.00 | 51 | 1010.2 |
| 20260831012343 | 32 | 138 | 1.6 | 4.8 | 0.00 | 0.00 | 0.00 | 49 | 1010.1 |
| 20260831010222 | 33 | 123 | 1.6 | 8.0 | 0.00 | 0.00 | 0.00 | 47 | 1010.0 |
| 20260831005207 | 33 | 140 | 1.6 | 11.3 | 0.00 | 0.00 | 0.00 | 46 | 1009.9 |
| 20260831004206 | 34 | 105 | 3.2 | 12.9 | 0.00 | 0.00 | 0.00 | 45 | 1010.0 |
| 20260831003203 | 34 | 195 | 3.2 | 12.9 | 0.00 | 0.00 | 0.00 | 43 | 1009.9 |
| 20260831002207 | 35 | 148 | 3.2 | 9.7 | 0.00 | 0.00 | 0.00 | 43 | 1009.8 |
| 20260831001137 | 35 | 179 | 4.8 | 11.3 | 0.00 | 0.00 | 0.00 | 42 | 1009.8 |
| 20260831000112 | 35 | 171 | 4.8 | 14.5 | 0.00 | 0.00 | 0.00 | 41 | 1009.8 |
| 20260830235048 | 36 | 165 | 4.8 | 12.9 | 0.00 | 0.00 | 0.00 | 40 | 1009.8 |
| 20260830234022 | 36 | 140 | 3.2 | 9.7 | 0.00 | 0.00 | 0.00 | 40 | 1010.0 |
| 20260830232951 | 36 | 160 | 4.8 | 14.5 | 0.00 | 0.00 | 0.00 | 39 | 1009.9 |
| 20260830231929 | 36 | 106 | 4.8 | 14.5 | 0.00 | 0.00 | 0.00 | 39 | 1009.9 |
| 20260830230912 | 36 | 107 | 6.4 | 17.7 | 0.00 | 0.00 | 0.00 | 39 | 1010.0 |
| 20260830225848 | 36 | 107 | 4.8 | 17.7 | 0.00 | 0.00 | 0.00 | 40 | 1010.1 |
| 20260830224910 | 36 | 109 | 3.2 | 11.3 | 0.00 | 0.00 | 0.00 | 40 | 1010.0 |
| 20260830223910 | 36 | 159 | 4.8 | 20.9 | 0.00 | 0.00 | 0.00 | 40 | 1010.1 |
| 20260830222916 | 36 | 180 | 4.8 | 20.9 | 0.00 | 0.00 | 0.00 | 40 | 1010.2 |
| 20260830221909 | 36 | 134 | 4.8 | 20.9 | 0.00 | 0.00 | 0.00 | 40 | 1010.2 |
| 20260830220847 | 36 | 186 | 8.0 | 20.9 | 0.00 | 0.00 | 0.00 | 40 | 1010.2 |
| 20260830215822 | 36 | 143 | 6.4 | 17.7 | 0.00 | 0.00 | 0.00 | 40 | 1010.4 |
| 20260830213727 | 36 | 112 | 4.8 | 19.3 | 0.00 | 0.00 | 0.00 | 41 | 1010.5 |